| time (UTC) | temp C | wind direction | speed KPH | gust KPH | rain 1hr cm | rain 24hr cm | rain mn cm | humidity % | barometer mb |
| 20260502183504 | 9 | 302 | 8.0 | 16.1 | 0.00 | 0.00 | 0.00 | 38 | 1014.5 |
| 20260502183004 | 10 | 283 | 6.4 | 17.7 | 0.00 | 0.00 | 0.00 | 34 | 1014.6 |
| 20260502182504 | 9 | 303 | 4.8 | 17.7 | 0.00 | 0.00 | 0.00 | 37 | 1014.6 |
| 20260502182004 | 9 | 308 | 6.4 | 17.7 | 0.00 | 0.00 | 0.00 | 42 | 1014.6 |
| 20260502181004 | 8 | 312 | 3.2 | 14.5 | 0.00 | 0.00 | 0.00 | 37 | 1014.9 |
| 20260502170504 | 8 | 313 | 4.8 | 14.5 | 0.00 | 0.00 | 0.00 | 45 | 1015.4 |
| 20260502164004 | 7 | 314 | 4.8 | 14.5 | 0.00 | 0.00 | 0.00 | 40 | 1015.6 |
| 20260502163004 | 7 | 313 | 4.8 | 17.7 | 0.00 | 0.00 | 0.00 | 39 | 1015.6 |
| 20260502162504 | 7 | 312 | 9.7 | 20.9 | 0.00 | 0.00 | 0.00 | 40 | 1015.6 |
| 20260502162003 | 7 | 310 | 8.0 | 20.9 | 0.00 | 0.00 | 0.00 | 39 | 1015.6 |
| 20260502161504 | 7 | 304 | 6.4 | 20.9 | 0.00 | 0.00 | 0.00 | 46 | 1015.7 |
| 20260502152004 | 6 | 305 | 9.7 | 19.3 | 0.00 | 0.00 | 0.00 | 41 | 1016.0 |
| 20260502151503 | 6 | 311 | 11.3 | 22.5 | 0.00 | 0.00 | 0.00 | 43 | 1016.1 |
| 20260502151004 | 5 | 307 | 11.3 | 22.5 | 0.00 | 0.00 | 0.00 | 43 | 1016.1 |
| 20260502150503 | 5 | 301 | 9.7 | 22.5 | 0.00 | 0.00 | 0.00 | 43 | 1016.1 |
| 20260502123504 | 2 | 311 | 3.2 | 11.3 | 0.00 | 0.00 | 0.00 | 73 | 1016.6 |
| 20260502123004 | 2 | 310 | 1.6 | 9.7 | 0.00 | 0.00 | 0.00 | 74 | 1016.9 |
| 20260502122504 | 1 | 311 | 1.6 | 9.7 | 0.00 | 0.00 | 0.00 | 78 | 1016.9 |
| 20260502122003 | 1 | 307 | 1.6 | 9.7 | 0.00 | 0.00 | 0.00 | 79 | 1016.9 |
| 20260502121003 | 1 | 313 | 1.6 | 11.3 | 0.00 | 0.00 | 0.00 | 80 | 1016.8 |
| 20260502120504 | 1 | 313 | 1.6 | 8.0 | 0.00 | 0.00 | 0.00 | 80 | 1016.8 |
| 20260502115503 | 1 | 311 | 1.6 | 8.0 | 0.00 | 0.00 | 0.00 | 81 | 1016.6 |
| 20260502114504 | 0 | 297 | 1.6 | 8.0 | 0.00 | 0.00 | 0.00 | 82 | 1016.5 |
| 20260502113504 | 0 | 298 | 1.6 | 6.4 | 0.00 | 0.00 | 0.00 | 82 | 1016.5 |
| 20260502113004 | 0 | 297 | 1.6 | 6.4 | 0.00 | 0.00 | 0.00 | 83 | 1016.5 |
| 20260502112504 | 0 | 296 | 1.6 | 6.4 | 0.00 | 0.00 | 0.00 | 83 | 1016.5 |
| 20260502112003 | 0 | 294 | 1.6 | 4.8 | 0.00 | 0.00 | 0.00 | 83 | 1016.5 |
| 20260502111004 | 0 | 303 | 0.0 | 3.2 | 0.00 | 0.00 | 0.00 | 77 | 1016.6 |
| 20260502110504 | 0 | 303 | 0.0 | 3.2 | 0.00 | 0.00 | 0.00 | 77 | 1016.6 |
| 20260502110003 | 0 | 303 | 0.0 | 3.2 | 0.00 | 0.00 | 0.00 | 77 | 1016.3 |
| 20260502105504 | 0 | 303 | 0.0 | 3.2 | 0.00 | 0.00 | 0.00 | 77 | 1016.3 |
| 20260502105004 | 0 | 303 | 0.0 | 3.2 | 0.00 | 0.00 | 0.00 | 77 | 1016.3 |
| 20260502104504 | 0 | 303 | 0.0 | 3.2 | 0.00 | 0.00 | 0.00 | 77 | 1016.3 |
| 20260502103504 | 0 | 303 | 0.0 | 3.2 | 0.00 | 0.00 | 0.00 | 77 | 1016.3 |
| 20260502103004 | 0 | 303 | 0.0 | 3.2 | 0.00 | 0.00 | 0.00 | 77 | 1016.2 |
| 20260502102504 | 0 | 303 | 0.0 | 3.2 | 0.00 | 0.00 | 0.00 | 77 | 1016.2 |
| 20260502101504 | 0 | 303 | 0.0 | 3.2 | 0.00 | 0.00 | 0.00 | 77 | 1016.1 |
| 20260502101004 | 0 | 303 | 0.0 | 3.2 | 0.00 | 0.00 | 0.00 | 77 | 1016.1 |
| 20260502100503 | 0 | 303 | 0.0 | 3.2 | 0.00 | 0.00 | 0.00 | 77 | 1016.1 |
| 20260502091504 | 0 | 303 | 0.0 | 3.2 | 0.00 | 0.00 | 0.00 | 77 | 1016.1 |
| 20260502071004 | 2 | 0 | 0.0 | 0.0 | 0.00 | 0.00 | 0.00 | 72 | 1015.7 |
| 20260502070004 | 2 | 313 | 0.0 | 3.2 | 0.00 | 0.00 | 0.00 | 71 | 1015.9 |
| 20260502065004 | 2 | 313 | 1.6 | 8.0 | 0.00 | 0.00 | 0.00 | 71 | 1015.9 |
| 20260502064504 | 2 | 313 | 1.6 | 11.3 | 0.00 | 0.00 | 0.00 | 70 | 1015.9 |
| 20260502064003 | 2 | 312 | 1.6 | 11.3 | 0.00 | 0.00 | 0.00 | 70 | 1015.9 |
| 20260502063504 | 2 | 311 | 1.6 | 6.4 | 0.00 | 0.00 | 0.00 | 69 | 1015.9 |
| 20260502063003 | 2 | 312 | 1.6 | 6.4 | 0.00 | 0.00 | 0.00 | 69 | 1015.9 |
| 20260502062003 | 2 | 314 | 1.6 | 6.4 | 0.00 | 0.00 | 0.00 | 68 | 1015.9 |
| 20260502061504 | 2 | 314 | 1.6 | 6.4 | 0.00 | 0.00 | 0.00 | 68 | 1015.9 |
| 20260502061004 | 2 | 312 | 0.0 | 4.8 | 0.00 | 0.00 | 0.00 | 68 | 1015.9 |
| 20260502060504 | 2 | 313 | 1.6 | 4.8 | 0.00 | 0.00 | 0.00 | 68 | 1015.9 |
| 20260502060004 | 2 | 314 | 0.0 | 3.2 | 0.00 | 0.00 | 0.00 | 68 | 1015.8 |
| 20260502055504 | 2 | 312 | 0.0 | 4.8 | 0.00 | 0.00 | 0.00 | 67 | 1015.8 |
| 20260502055004 | 2 | 312 | 1.6 | 8.0 | 0.00 | 0.00 | 0.00 | 67 | 1015.8 |
| 20260502054004 | 2 | 313 | 1.6 | 6.4 | 0.00 | 0.00 | 0.00 | 65 | 1015.7 |
| 20260502053504 | 2 | 313 | 1.6 | 8.0 | 0.00 | 0.00 | 0.00 | 66 | 1015.7 |
| 20260502053004 | 2 | 313 | 1.6 | 8.0 | 0.00 | 0.00 | 0.00 | 65 | 1015.7 |
| 20260502052003 | 3 | 315 | 1.6 | 8.0 | 0.00 | 0.00 | 0.00 | 64 | 1015.7 |
| 20260502051503 | 3 | 313 | 1.6 | 8.0 | 0.00 | 0.00 | 0.00 | 64 | 1015.6 |
| 20260502051004 | 3 | 314 | 1.6 | 8.0 | 0.00 | 0.00 | 0.00 | 63 | 1015.6 |
| 20260502050004 | 3 | 314 | 1.6 | 8.0 | 0.00 | 0.00 | 0.00 | 63 | 1015.5 |
| 20260502045504 | 3 | 315 | 1.6 | 11.3 | 0.00 | 0.00 | 0.00 | 63 | 1015.5 |
| 20260502045004 | 3 | 317 | 1.6 | 11.3 | 0.00 | 0.00 | 0.00 | 62 | 1015.5 |
| 20260502044504 | 3 | 319 | 1.6 | 9.7 | 0.00 | 0.00 | 0.00 | 62 | 1015.5 |
| 20260502044004 | 3 | 316 | 1.6 | 9.7 | 0.00 | 0.00 | 0.00 | 61 | 1015.5 |
| 20260502043503 | 3 | 317 | 3.2 | 9.7 | 0.00 | 0.00 | 0.00 | 61 | 1015.5 |
| 20260502043004 | 3 | 318 | 1.6 | 9.7 | 0.00 | 0.00 | 0.00 | 61 | 1015.5 |
| 20260502042504 | 3 | 316 | 3.2 | 14.5 | 0.00 | 0.00 | 0.00 | 60 | 1015.5 |
| 20260502042004 | 3 | 316 | 3.2 | 14.5 | 0.00 | 0.00 | 0.00 | 60 | 1015.5 |
| 20260502041503 | 3 | 317 | 1.6 | 6.4 | 0.00 | 0.00 | 0.00 | 60 | 1015.5 |
| 20260502040503 | 3 | 319 | 1.6 | 8.0 | 0.00 | 0.00 | 0.00 | 60 | 1015.5 |
| 20260502040005 | 3 | 319 | 3.2 | 8.0 | 0.00 | 0.00 | 0.00 | 59 | 1015.4 |
| 20260502035504 | 3 | 317 | 3.2 | 11.3 | 0.00 | 0.00 | 0.00 | 59 | 1015.4 |
| 20260502035004 | 3 | 315 | 3.2 | 11.3 | 0.00 | 0.00 | 0.00 | 59 | 1015.4 |
| 20260502034004 | 3 | 321 | 1.6 | 6.4 | 0.00 | 0.00 | 0.00 | 59 | 1015.4 |
| 20260502033504 | 3 | 317 | 3.2 | 11.3 | 0.00 | 0.00 | 0.00 | 59 | 1015.4 |
| 20260502033004 | 3 | 316 | 3.2 | 11.3 | 0.00 | 0.00 | 0.00 | 59 | 1015.2 |
| 20260502032503 | 3 | 316 | 3.2 | 8.0 | 0.00 | 0.00 | 0.00 | 59 | 1015.2 |
| 20260502032004 | 3 | 316 | 3.2 | 9.7 | 0.00 | 0.00 | 0.00 | 59 | 1015.2 |
| 20260502030503 | 3 | 314 | 4.8 | 9.7 | 0.00 | 0.00 | 0.00 | 59 | 1015.2 |
| 20260502030003 | 3 | 314 | 4.8 | 11.3 | 0.00 | 0.00 | 0.00 | 59 | 1015.1 |
| 20260502025503 | 3 | 313 | 3.2 | 11.3 | 0.00 | 0.00 | 0.00 | 58 | 1015.1 |
| 20260502025004 | 3 | 313 | 3.2 | 8.0 | 0.00 | 0.00 | 0.00 | 58 | 1015.1 |
| 20260502024504 | 4 | 312 | 1.6 | 6.4 | 0.00 | 0.00 | 0.00 | 57 | 1015.1 |
| 20260502024004 | 4 | 312 | 1.6 | 6.4 | 0.00 | 0.00 | 0.00 | 57 | 1015.1 |
| 20260502023504 | 4 | 313 | 1.6 | 6.4 | 0.00 | 0.00 | 0.00 | 57 | 1015.1 |
| 20260502022503 | 4 | 313 | 1.6 | 4.8 | 0.00 | 0.00 | 0.00 | 56 | 1015.0 |
| 20260502022003 | 4 | 311 | 1.6 | 4.8 | 0.00 | 0.00 | 0.00 | 56 | 1015.0 |
| 20260502021503 | 4 | 312 | 1.6 | 8.0 | 0.00 | 0.00 | 0.00 | 56 | 1015.0 |
| 20260502021004 | 4 | 313 | 3.2 | 8.0 | 0.00 | 0.00 | 0.00 | 56 | 1015.0 |
| 20260502020504 | 4 | 313 | 1.6 | 8.0 | 0.00 | 0.00 | 0.00 | 56 | 1015.0 |
| 20260502020004 | 4 | 315 | 3.2 | 6.4 | 0.00 | 0.00 | 0.00 | 55 | 1015.0 |
| 20260502015503 | 4 | 315 | 1.6 | 8.0 | 0.00 | 0.00 | 0.00 | 55 | 1015.0 |
| 20260502015003 | 4 | 313 | 3.2 | 8.0 | 0.00 | 0.00 | 0.00 | 56 | 1015.0 |
| 20260502014504 | 4 | 314 | 3.2 | 9.7 | 0.00 | 0.00 | 0.00 | 55 | 1014.9 |
| 20260502014004 | 4 | 313 | 3.2 | 9.7 | 0.00 | 0.00 | 0.00 | 54 | 1014.9 |
| 20260502013504 | 4 | 313 | 3.2 | 9.7 | 0.00 | 0.00 | 0.00 | 55 | 1014.9 |
| 20260502013004 | 4 | 315 | 4.8 | 11.3 | 0.00 | 0.00 | 0.00 | 55 | 1014.8 |
| 20260502012503 | 4 | 317 | 4.8 | 11.3 | 0.00 | 0.00 | 0.00 | 55 | 1014.8 |
| 20260502012004 | 4 | 316 | 3.2 | 11.3 | 0.00 | 0.00 | 0.00 | 54 | 1014.8 |
| 20260502011503 | 5 | 315 | 3.2 | 9.7 | 0.00 | 0.00 | 0.00 | 54 | 1014.6 |
| 20260502011003 | 5 | 316 | 3.2 | 9.7 | 0.00 | 0.00 | 0.00 | 54 | 1014.6 |
| 20260502010504 | 5 | 314 | 3.2 | 12.9 | 0.00 | 0.00 | 0.00 | 54 | 1014.6 |
| 20260502005503 | 5 | 315 | 3.2 | 11.3 | 0.00 | 0.00 | 0.00 | 55 | 1014.4 |
| 20260502005003 | 5 | 317 | 3.2 | 14.5 | 0.00 | 0.00 | 0.00 | 54 | 1014.4 |
| 20260502004504 | 5 | 318 | 1.6 | 14.5 | 0.00 | 0.00 | 0.00 | 53 | 1014.3 |
| 20260502004004 | 5 | 316 | 1.6 | 6.4 | 0.00 | 0.00 | 0.00 | 53 | 1014.3 |
| 20260502003504 | 5 | 313 | 3.2 | 11.3 | 0.00 | 0.00 | 0.00 | 53 | 1014.3 |
| 20260502003004 | 5 | 312 | 3.2 | 11.3 | 0.00 | 0.00 | 0.00 | 52 | 1014.2 |
| 20260502002504 | 5 | 314 | 1.6 | 8.0 | 0.00 | 0.00 | 0.00 | 52 | 1014.2 |
| 20260502002004 | 5 | 315 | 1.6 | 8.0 | 0.00 | 0.00 | 0.00 | 51 | 1014.2 |
| 20260502001504 | 5 | 315 | 3.2 | 8.0 | 0.00 | 0.00 | 0.00 | 51 | 1014.0 |
| 20260502001004 | 5 | 315 | 3.2 | 8.0 | 0.00 | 0.00 | 0.00 | 51 | 1014.0 |
| 20260502000004 | 5 | 317 | 4.8 | 12.9 | 0.00 | 0.00 | 0.00 | 50 | 1014.0 |
| 20260501235004 | 5 | 318 | 4.8 | 14.5 | 0.00 | 0.00 | 0.00 | 50 | 1014.0 |
| 20260501234004 | 5 | 319 | 3.2 | 9.7 | 0.00 | 0.00 | 0.00 | 50 | 1013.9 |
| 20260501233504 | 5 | 318 | 3.2 | 9.7 | 0.00 | 0.00 | 0.00 | 49 | 1013.9 |
| 20260501233004 | 5 | 313 | 4.8 | 12.9 | 0.00 | 0.00 | 0.00 | 51 | 1013.9 |
| 20260501232003 | 5 | 315 | 4.8 | 12.9 | 0.00 | 0.00 | 0.00 | 49 | 1013.9 |
| 20260501231503 | 5 | 314 | 6.4 | 16.1 | 0.00 | 0.00 | 0.00 | 50 | 1013.8 |
| 20260501231003 | 5 | 313 | 4.8 | 16.1 | 0.00 | 0.00 | 0.00 | 50 | 1013.8 |
| 20260501230503 | 6 | 315 | 3.2 | 16.1 | 0.00 | 0.00 | 0.00 | 49 | 1013.8 |
| 20260501225503 | 6 | 314 | 3.2 | 14.5 | 0.00 | 0.00 | 0.00 | 50 | 1013.6 |
| 20260501225004 | 6 | 316 | 3.2 | 14.5 | 0.00 | 0.00 | 0.00 | 49 | 1013.6 |
| 20260501224504 | 6 | 319 | 3.2 | 11.3 | 0.00 | 0.00 | 0.00 | 51 | 1013.6 |
| 20260501224004 | 6 | 321 | 3.2 | 14.5 | 0.00 | 0.00 | 0.00 | 49 | 1013.6 |
| 20260501223503 | 6 | 320 | 3.2 | 14.5 | 0.00 | 0.00 | 0.00 | 49 | 1013.6 |
| 20260501223003 | 6 | 318 | 4.8 | 12.9 | 0.00 | 0.00 | 0.00 | 49 | 1013.5 |
| 20260501222504 | 6 | 317 | 4.8 | 12.9 | 0.00 | 0.00 | 0.00 | 49 | 1013.5 |
| 20260501222004 | 6 | 317 | 3.2 | 11.3 | 0.00 | 0.00 | 0.00 | 49 | 1013.5 |
| 20260501221504 | 6 | 316 | 3.2 | 11.3 | 0.00 | 0.00 | 0.00 | 50 | 1013.4 |
| 20260501221004 | 6 | 316 | 3.2 | 11.3 | 0.00 | 0.00 | 0.00 | 50 | 1013.4 |
| 20260501220504 | 6 | 315 | 3.2 | 11.3 | 0.00 | 0.00 | 0.00 | 50 | 1013.4 |
| 20260501220004 | 6 | 318 | 1.6 | 9.7 | 0.00 | 0.00 | 0.00 | 50 | 1013.3 |
| 20260501215504 | 6 | 320 | 3.2 | 9.7 | 0.00 | 0.00 | 0.00 | 49 | 1013.3 |
| 20260501214504 | 6 | 317 | 4.8 | 19.3 | 0.00 | 0.00 | 0.00 | 49 | 1013.2 |
| 20260501214004 | 6 | 317 | 4.8 | 19.3 | 0.00 | 0.00 | 0.00 | 49 | 1013.2 |
| 20260501213504 | 6 | 315 | 6.4 | 17.7 | 0.00 | 0.00 | 0.00 | 51 | 1013.2 |
| 20260501213004 | 6 | 315 | 6.4 | 17.7 | 0.00 | 0.00 | 0.00 | 49 | 1013.0 |
| 20260501212504 | 6 | 316 | 3.2 | 12.9 | 0.00 | 0.00 | 0.00 | 48 | 1013.0 |
| 20260501212004 | 6 | 318 | 3.2 | 12.9 | 0.00 | 0.00 | 0.00 | 47 | 1013.0 |
| 20260501210503 | 6 | 314 | 8.0 | 19.3 | 0.00 | 0.00 | 0.00 | 48 | 1012.8 |
| 20260501210003 | 7 | 311 | 4.8 | 20.9 | 0.00 | 0.00 | 0.00 | 47 | 1012.8 |
| 20260501205504 | 7 | 312 | 6.4 | 20.9 | 0.00 | 0.00 | 0.00 | 44 | 1012.8 |
| 20260501204004 | 7 | 311 | 4.8 | 16.1 | 0.00 | 0.00 | 0.00 | 45 | 1012.9 |
| 20260501203504 | 7 | 312 | 3.2 | 14.5 | 0.00 | 0.00 | 0.00 | 44 | 1012.9 |
| 20260501202504 | 7 | 314 | 4.8 | 11.3 | 0.00 | 0.00 | 0.00 | 45 | 1012.9 |
| 20260501202004 | 7 | 311 | 4.8 | 12.9 | 0.00 | 0.00 | 0.00 | 48 | 1012.9 |
| 20260501201504 | 7 | 313 | 4.8 | 12.9 | 0.00 | 0.00 | 0.00 | 47 | 1012.9 |
| 20260501201004 | 7 | 316 | 4.8 | 11.3 | 0.00 | 0.00 | 0.00 | 46 | 1012.9 |
| 20260501200004 | 7 | 317 | 4.8 | 14.5 | 0.00 | 0.00 | 0.00 | 47 | 1012.9 |
| 20260501195004 | 7 | 315 | 4.8 | 16.1 | 0.00 | 0.00 | 0.00 | 46 | 1012.9 |
| 20260501194504 | 7 | 313 | 4.8 | 12.9 | 0.00 | 0.00 | 0.00 | 45 | 1012.8 |
| 20260501194003 | 7 | 314 | 4.8 | 12.9 | 0.00 | 0.00 | 0.00 | 44 | 1012.8 |
| 20260501193503 | 7 | 314 | 4.8 | 16.1 | 0.00 | 0.00 | 0.00 | 45 | 1012.8 |
| 20260501193003 | 7 | 317 | 3.2 | 16.1 | 0.00 | 0.00 | 0.00 | 45 | 1012.8 |
| 20260501192504 | 7 | 319 | 3.2 | 16.1 | 0.00 | 0.00 | 0.00 | 45 | 1012.8 |
| 20260501192003 | 7 | 318 | 4.8 | 16.1 | 0.00 | 0.00 | 0.00 | 45 | 1012.8 |
| 20260501191504 | 7 | 314 | 3.2 | 12.9 | 0.00 | 0.00 | 0.00 | 46 | 1012.8 |
| 20260501191003 | 7 | 325 | 3.2 | 11.3 | 0.00 | 0.00 | 0.00 | 45 | 1012.8 |
| 20260501190503 | 7 | 19 | 3.2 | 11.3 | 0.00 | 0.00 | 0.00 | 48 | 1012.8 |
| 20260501190003 | 7 | 317 | 4.8 | 11.3 | 0.00 | 0.00 | 0.00 | 44 | 1012.9 |
| 20260501185503 | 7 | 300 | 4.8 | 14.5 | 0.00 | 0.00 | 0.00 | 45 | 1012.9 |
| 20260501185004 | 7 | 298 | 4.8 | 14.5 | 0.00 | 0.00 | 0.00 | 45 | 1012.9 |
| 20260501184504 | 7 | 307 | 4.8 | 14.5 | 0.00 | 0.00 | 0.00 | 44 | 1012.8 |
| 20260501184004 | 7 | 318 | 3.2 | 14.5 | 0.00 | 0.00 | 0.00 | 45 | 1012.8 |